| time (UTC) | temp F | wind direction | speed knots | gust knots | rain 1hr in | rain 24hr in | rain mn in | humidity % | barometer mb |
| 20260507114319 | 30 | 119 | 0.0 | 0.0 | 0.00 | 0.00 | 0.00 | 66 | 1014.6 |
| 20260507113828 | 30 | 120 | 0.0 | 0.0 | 0.00 | 0.00 | 0.00 | 66 | 1014.6 |
| 20260507113320 | 30 | 119 | 0.0 | 0.0 | 0.00 | 0.00 | 0.00 | 65 | 1014.6 |
| 20260507112827 | 30 | 119 | 0.0 | 0.0 | 0.00 | 0.00 | 0.00 | 65 | 1014.6 |
| 20260507112334 | 30 | 119 | 0.0 | 0.0 | 0.00 | 0.00 | 0.00 | 65 | 1014.5 |
| 20260507111822 | 30 | 119 | 0.0 | 0.0 | 0.00 | 0.00 | 0.00 | 65 | 1014.5 |
| 20260507111328 | 30 | 120 | 0.0 | 0.0 | 0.00 | 0.00 | 0.00 | 65 | 1014.5 |
| 20260507110838 | 31 | 119 | 0.0 | 0.0 | 0.00 | 0.00 | 0.00 | 65 | 1014.5 |
| 20260507110325 | 31 | 120 | 0.0 | 0.0 | 0.00 | 0.00 | 0.00 | 64 | 1014.5 |
| 20260507105832 | 31 | 120 | 0.0 | 0.0 | 0.00 | 0.00 | 0.00 | 64 | 1014.5 |
| 20260507105339 | 31 | 119 | 0.0 | 0.0 | 0.00 | 0.00 | 0.00 | 63 | 1014.6 |
| 20260507104825 | 31 | 119 | 0.0 | 0.0 | 0.00 | 0.00 | 0.00 | 64 | 1014.6 |
| 20260507104337 | 31 | 120 | 0.0 | 0.0 | 0.00 | 0.00 | 0.00 | 63 | 1014.6 |
| 20260507103823 | 31 | 119 | 0.0 | 0.0 | 0.00 | 0.00 | 0.00 | 63 | 1014.7 |
| 20260507103331 | 32 | 119 | 0.0 | 0.0 | 0.00 | 0.00 | 0.00 | 62 | 1014.7 |
| 20260507102838 | 32 | 120 | 0.0 | 0.0 | 0.00 | 0.00 | 0.00 | 62 | 1014.7 |
| 20260507102323 | 32 | 119 | 0.0 | 0.0 | 0.00 | 0.00 | 0.00 | 62 | 1014.7 |
| 20260507101829 | 32 | 119 | 0.0 | 0.0 | 0.00 | 0.00 | 0.00 | 61 | 1014.7 |
| 20260507101335 | 32 | 119 | 0.0 | 0.9 | 0.00 | 0.00 | 0.00 | 61 | 1014.7 |
| 20260507100821 | 32 | 119 | 0.0 | 0.9 | 0.00 | 0.00 | 0.00 | 62 | 1015.6 |
| 20260507100327 | 32 | 120 | 0.0 | 0.9 | 0.00 | 0.00 | 0.00 | 62 | 1015.6 |
| 20260507095834 | 32 | 120 | 0.0 | 0.0 | 0.00 | 0.00 | 0.00 | 62 | 1015.6 |
| 20260507095326 | 32 | 120 | 0.0 | 0.0 | 0.00 | 0.00 | 0.00 | 61 | 1015.5 |
| 20260507094833 | 32 | 119 | 0.0 | 0.0 | 0.00 | 0.00 | 0.00 | 61 | 1015.5 |
| 20260507094319 | 32 | 120 | 0.0 | 0.0 | 0.00 | 0.00 | 0.00 | 61 | 1015.6 |
| 20260507093826 | 32 | 119 | 0.0 | 0.0 | 0.00 | 0.00 | 0.00 | 61 | 1015.6 |
| 20260507093331 | 32 | 119 | 0.0 | 0.0 | 0.00 | 0.00 | 0.00 | 60 | 1015.6 |
| 20260507092819 | 32 | 119 | 0.0 | 0.0 | 0.00 | 0.00 | 0.00 | 60 | 1015.6 |
| 20260507092328 | 32 | 119 | 0.0 | 0.0 | 0.00 | 0.00 | 0.00 | 60 | 1015.6 |
| 20260507091834 | 32 | 119 | 0.0 | 0.0 | 0.00 | 0.00 | 0.00 | 60 | 1015.6 |
| 20260507091320 | 32 | 120 | 0.0 | 0.0 | 0.00 | 0.00 | 0.00 | 60 | 1015.7 |
| 20260507090834 | 32 | 120 | 0.0 | 0.0 | 0.00 | 0.00 | 0.00 | 60 | 1014.8 |
| 20260507090322 | 32 | 119 | 0.0 | 0.9 | 0.00 | 0.00 | 0.00 | 59 | 1014.8 |
| 20260507085829 | 32 | 119 | 0.0 | 0.9 | 0.00 | 0.00 | 0.00 | 59 | 1014.8 |
| 20260507085337 | 32 | 119 | 0.0 | 0.0 | 0.00 | 0.00 | 0.00 | 59 | 1014.8 |
| 20260507084825 | 33 | 120 | 0.0 | 0.9 | 0.00 | 0.00 | 0.00 | 58 | 1014.8 |
| 20260507084331 | 33 | 120 | 0.0 | 0.9 | 0.00 | 0.00 | 0.00 | 58 | 1014.8 |
| 20260507083818 | 33 | 119 | 0.0 | 0.0 | 0.00 | 0.00 | 0.00 | 58 | 1014.7 |
| 20260507083327 | 33 | 119 | 0.0 | 0.0 | 0.00 | 0.00 | 0.00 | 58 | 1014.7 |
| 20260507082835 | 33 | 120 | 0.0 | 0.0 | 0.00 | 0.00 | 0.00 | 58 | 1014.7 |
| 20260507082325 | 33 | 119 | 0.0 | 0.0 | 0.00 | 0.00 | 0.00 | 57 | 1014.6 |
| 20260507081830 | 33 | 119 | 0.0 | 0.0 | 0.00 | 0.00 | 0.00 | 57 | 1014.6 |
| 20260507081339 | 33 | 119 | 0.0 | 0.0 | 0.00 | 0.00 | 0.00 | 56 | 1014.6 |
| 20260507080826 | 33 | 119 | 0.0 | 0.0 | 0.00 | 0.00 | 0.00 | 56 | 1014.6 |
| 20260507080333 | 34 | 119 | 0.0 | 0.9 | 0.00 | 0.00 | 0.00 | 56 | 1014.6 |
| 20260507075818 | 34 | 119 | 0.0 | 0.9 | 0.00 | 0.00 | 0.00 | 56 | 1014.7 |
| 20260507075328 | 34 | 119 | 0.0 | 0.0 | 0.00 | 0.00 | 0.00 | 55 | 1014.7 |
| 20260507074833 | 34 | 119 | 0.0 | 0.9 | 0.00 | 0.00 | 0.00 | 55 | 1014.7 |
| 20260507074318 | 34 | 119 | 0.0 | 0.9 | 0.00 | 0.00 | 0.00 | 55 | 1014.7 |
| 20260507073828 | 34 | 119 | 0.0 | 0.9 | 0.00 | 0.00 | 0.00 | 54 | 1014.7 |
| 20260507073318 | 34 | 119 | 0.0 | 1.7 | 0.00 | 0.00 | 0.00 | 54 | 1014.7 |
| 20260507072828 | 35 | 120 | 0.9 | 1.7 | 0.00 | 0.00 | 0.00 | 53 | 1014.7 |
| 20260507072334 | 35 | 120 | 0.9 | 1.7 | 0.00 | 0.00 | 0.00 | 53 | 1014.7 |
| 20260507071821 | 35 | 119 | 0.9 | 1.7 | 0.00 | 0.00 | 0.00 | 53 | 1014.7 |
| 20260507071329 | 35 | 119 | 0.9 | 1.7 | 0.00 | 0.00 | 0.00 | 52 | 1014.7 |
| 20260507070836 | 35 | 120 | 0.9 | 1.7 | 0.00 | 0.00 | 0.00 | 52 | 1015.7 |
| 20260507070324 | 35 | 119 | 0.9 | 1.7 | 0.00 | 0.00 | 0.00 | 52 | 1015.7 |
| 20260507065831 | 36 | 119 | 0.9 | 1.7 | 0.00 | 0.00 | 0.00 | 51 | 1015.7 |
| 20260507065338 | 36 | 120 | 0.9 | 1.7 | 0.00 | 0.00 | 0.00 | 51 | 1015.7 |
| 20260507064829 | 36 | 119 | 0.9 | 1.7 | 0.00 | 0.00 | 0.00 | 51 | 1015.7 |
| 20260507064337 | 36 | 119 | 0.9 | 1.7 | 0.00 | 0.00 | 0.00 | 50 | 1015.7 |
| 20260507063824 | 36 | 120 | 0.9 | 1.7 | 0.00 | 0.00 | 0.00 | 50 | 1015.8 |
| 20260507063330 | 37 | 120 | 0.9 | 1.7 | 0.00 | 0.00 | 0.00 | 49 | 1015.8 |
| 20260507062838 | 37 | 119 | 1.7 | 2.6 | 0.00 | 0.00 | 0.00 | 49 | 1015.8 |
| 20260507062324 | 37 | 119 | 0.9 | 2.6 | 0.00 | 0.00 | 0.00 | 49 | 1015.8 |
| 20260507061832 | 37 | 120 | 1.7 | 2.6 | 0.00 | 0.00 | 0.00 | 48 | 1015.8 |
| 20260507061318 | 37 | 119 | 1.7 | 2.6 | 0.00 | 0.00 | 0.00 | 48 | 1015.0 |
| 20260507060828 | 37 | 119 | 0.9 | 2.6 | 0.00 | 0.00 | 0.00 | 48 | 1015.0 |
| 20260507060335 | 38 | 119 | 1.7 | 2.6 | 0.00 | 0.00 | 0.00 | 48 | 1015.0 |
| 20260507055827 | 38 | 119 | 1.7 | 2.6 | 0.00 | 0.00 | 0.00 | 47 | 1015.0 |
| 20260507055333 | 38 | 120 | 1.7 | 3.5 | 0.00 | 0.00 | 0.00 | 47 | 1015.0 |
| 20260507054820 | 38 | 119 | 1.7 | 3.5 | 0.00 | 0.00 | 0.00 | 47 | 1015.0 |
| 20260507054328 | 38 | 133 | 1.7 | 2.6 | 0.00 | 0.00 | 0.00 | 46 | 1015.0 |
| 20260507053836 | 38 | 144 | 0.9 | 1.7 | 0.00 | 0.00 | 0.00 | 46 | 1015.9 |
| 20260507053324 | 38 | 144 | 0.9 | 1.7 | 0.00 | 0.00 | 0.00 | 46 | 1015.9 |
| 20260507052830 | 39 | 103 | 1.7 | 4.3 | 0.00 | 0.00 | 0.00 | 45 | 1015.9 |
| 20260507052338 | 39 | 121 | 2.6 | 5.2 | 0.00 | 0.00 | 0.00 | 45 | 1015.9 |
| 20260507051826 | 39 | 127 | 1.7 | 5.2 | 0.00 | 0.00 | 0.00 | 45 | 1015.9 |
| 20260507051337 | 39 | 110 | 2.6 | 3.5 | 0.00 | 0.00 | 0.00 | 45 | 1015.9 |
| 20260507050824 | 39 | 103 | 1.7 | 3.5 | 0.00 | 0.00 | 0.00 | 44 | 1015.3 |
| 20260507050330 | 39 | 123 | 1.7 | 3.5 | 0.00 | 0.00 | 0.00 | 44 | 1015.3 |
| 20260507045836 | 39 | 97 | 1.7 | 3.5 | 0.00 | 0.00 | 0.00 | 44 | 1015.3 |
| 20260507045321 | 40 | 113 | 1.7 | 4.3 | 0.00 | 0.00 | 0.00 | 43 | 1015.4 |
| 20260507044829 | 40 | 116 | 1.7 | 4.3 | 0.00 | 0.00 | 0.00 | 43 | 1015.4 |
| 20260507044336 | 40 | 103 | 2.6 | 4.3 | 0.00 | 0.00 | 0.00 | 42 | 1015.4 |
| 20260507043821 | 40 | 112 | 2.6 | 4.3 | 0.00 | 0.00 | 0.00 | 42 | 1016.2 |
| 20260507043329 | 40 | 97 | 2.6 | 4.3 | 0.00 | 0.00 | 0.00 | 41 | 1016.2 |
| 20260507042835 | 41 | 110 | 1.7 | 2.6 | 0.00 | 0.00 | 0.00 | 41 | 1016.2 |
| 20260507042326 | 41 | 93 | 1.7 | 5.2 | 0.00 | 0.00 | 0.00 | 41 | 1016.3 |
| 20260507041832 | 41 | 112 | 1.7 | 5.2 | 0.00 | 0.00 | 0.00 | 40 | 1016.3 |
| 20260507041337 | 41 | 103 | 1.7 | 5.2 | 0.00 | 0.00 | 0.00 | 39 | 1016.3 |
| 20260507040826 | 42 | 72 | 2.6 | 5.2 | 0.00 | 0.00 | 0.00 | 39 | 1016.3 |
| 20260507040332 | 42 | 93 | 1.7 | 5.2 | 0.00 | 0.00 | 0.00 | 38 | 1016.3 |
| 20260507035820 | 42 | 59 | 1.7 | 3.5 | 0.00 | 0.00 | 0.00 | 38 | 1016.4 |
| 20260507035326 | 42 | 49 | 1.7 | 3.5 | 0.00 | 0.00 | 0.00 | 37 | 1016.4 |
| 20260507034834 | 42 | 61 | 0.9 | 2.6 | 0.00 | 0.00 | 0.00 | 37 | 1016.4 |
| 20260507034320 | 43 | 32 | 0.9 | 3.5 | 0.00 | 0.00 | 0.00 | 37 | 1016.4 |
| 20260507033833 | 43 | 61 | 1.7 | 3.5 | 0.00 | 0.00 | 0.00 | 37 | 1016.4 |
| 20260507033321 | 43 | 48 | 1.7 | 2.6 | 0.00 | 0.00 | 0.00 | 37 | 1016.4 |
| 20260507032829 | 43 | 48 | 0.9 | 1.7 | 0.00 | 0.00 | 0.00 | 36 | 1016.4 |
| 20260507032335 | 43 | 48 | 0.9 | 1.7 | 0.00 | 0.00 | 0.00 | 36 | 1016.4 |
| 20260507031820 | 43 | 48 | 0.9 | 2.6 | 0.00 | 0.00 | 0.00 | 36 | 1016.4 |
| 20260507031330 | 44 | 48 | 1.7 | 4.3 | 0.00 | 0.00 | 0.00 | 35 | 1016.4 |
| 20260507030837 | 44 | 49 | 1.7 | 4.3 | 0.00 | 0.00 | 0.00 | 35 | 1015.7 |
| 20260507030325 | 44 | 35 | 1.7 | 3.5 | 0.00 | 0.00 | 0.00 | 35 | 1015.7 |
| 20260507025830 | 44 | 45 | 0.9 | 3.5 | 0.00 | 0.00 | 0.00 | 34 | 1015.7 |
| 20260507025321 | 45 | 49 | 0.9 | 2.6 | 0.00 | 0.00 | 0.00 | 34 | 1016.5 |
| 20260507024828 | 45 | 51 | 1.7 | 2.6 | 0.00 | 0.00 | 0.00 | 34 | 1016.5 |
| 20260507024335 | 45 | 51 | 1.7 | 2.6 | 0.00 | 0.00 | 0.00 | 33 | 1016.5 |
| 20260507023823 | 45 | 51 | 1.7 | 2.6 | 0.00 | 0.00 | 0.00 | 33 | 1016.5 |
| 20260507023330 | 45 | 51 | 0.9 | 1.7 | 0.00 | 0.00 | 0.00 | 32 | 1016.5 |
| 20260507022836 | 46 | 51 | 0.9 | 1.7 | 0.00 | 0.00 | 0.00 | 32 | 1016.5 |
| 20260507022323 | 46 | 49 | 0.0 | 1.7 | 0.00 | 0.00 | 0.00 | 32 | 1016.4 |
| 20260507021830 | 46 | 51 | 0.9 | 1.7 | 0.00 | 0.00 | 0.00 | 31 | 1016.4 |
| 20260507021338 | 47 | 51 | 0.9 | 1.7 | 0.00 | 0.00 | 0.00 | 31 | 1016.4 |
| 20260507020826 | 47 | 51 | 0.0 | 1.7 | 0.00 | 0.00 | 0.00 | 31 | 1015.9 |
| 20260507020337 | 47 | 51 | 0.9 | 1.7 | 0.00 | 0.00 | 0.00 | 30 | 1015.9 |
| 20260507015825 | 47 | 51 | 0.9 | 1.7 | 0.00 | 0.00 | 0.00 | 29 | 1015.8 |
| 20260507015332 | 48 | 51 | 0.9 | 1.7 | 0.00 | 0.00 | 0.00 | 29 | 1015.8 |
| 20260507014820 | 48 | 45 | 0.0 | 2.6 | 0.00 | 0.00 | 0.00 | 28 | 1015.8 |
| 20260507014328 | 48 | 42 | 1.7 | 4.3 | 0.00 | 0.00 | 0.00 | 28 | 1015.8 |
| 20260507013836 | 48 | 10 | 0.9 | 6.1 | 0.00 | 0.00 | 0.00 | 28 | 1015.8 |
| 20260507013323 | 49 | 30 | 3.5 | 6.1 | 0.00 | 0.00 | 0.00 | 27 | 1015.8 |
| 20260507012829 | 49 | 37 | 1.7 | 7.0 | 0.00 | 0.00 | 0.00 | 28 | 1015.8 |
| 20260507012337 | 49 | 27 | 1.7 | 7.0 | 0.00 | 0.00 | 0.00 | 28 | 1015.8 |
| 20260507011828 | 49 | 35 | 2.6 | 5.2 | 0.00 | 0.00 | 0.00 | 27 | 1015.8 |
| 20260507011335 | 49 | 21 | 1.7 | 4.3 | 0.00 | 0.00 | 0.00 | 27 | 1015.8 |
| 20260507010822 | 50 | 48 | 1.7 | 7.0 | 0.00 | 0.00 | 0.00 | 27 | 1016.0 |
| 20260507010329 | 50 | 354 | 1.7 | 7.0 | 0.00 | 0.00 | 0.00 | 27 | 1016.0 |
| 20260507005836 | 50 | 360 | 2.6 | 6.1 | 0.00 | 0.00 | 0.00 | 26 | 1016.0 |
| 20260507005323 | 50 | 61 | 0.9 | 7.0 | 0.00 | 0.00 | 0.00 | 26 | 1015.9 |
| 20260507004829 | 51 | 342 | 4.3 | 7.0 | 0.00 | 0.00 | 0.00 | 26 | 1015.9 |
| 20260507004336 | 51 | 258 | 3.5 | 7.0 | 0.00 | 0.00 | 0.00 | 26 | 1015.9 |
| 20260507003822 | 51 | 330 | 1.7 | 6.1 | 0.00 | 0.00 | 0.00 | 26 | 1016.0 |
| 20260507003329 | 51 | 306 | 1.7 | 6.1 | 0.00 | 0.00 | 0.00 | 26 | 1016.0 |
| 20260507002819 | 51 | 336 | 1.7 | 7.8 | 0.00 | 0.00 | 0.00 | 26 | 1016.1 |
| 20260507002329 | 51 | 298 | 5.2 | 7.8 | 0.00 | 0.00 | 0.00 | 26 | 1016.1 |
| 20260507001836 | 51 | 34 | 2.6 | 10.4 | 0.00 | 0.00 | 0.00 | 26 | 1016.1 |
| 20260507001322 | 51 | 320 | 1.7 | 10.4 | 0.00 | 0.00 | 0.00 | 25 | 1016.1 |
| 20260507000831 | 52 | 208 | 1.7 | 6.1 | 0.00 | 0.00 | 0.00 | 25 | 1016.1 |
| 20260507000339 | 52 | 350 | 3.5 | 9.6 | 0.00 | 0.00 | 0.00 | 26 | 1016.1 |
| 20260506235826 | 52 | 318 | 5.2 | 9.6 | 0.00 | 0.00 | 0.00 | 25 | 1016.1 |
| 20260506235332 | 53 | 308 | 3.5 | 9.6 | 0.00 | 0.00 | 0.00 | 24 | 1016.2 |
| 20260506234823 | 53 | 144 | 1.7 | 9.6 | 0.00 | 0.00 | 0.00 | 25 | 1016.2 |
| 20260506234333 | 53 | 328 | 2.6 | 8.7 | 0.00 | 0.00 | 0.00 | 25 | 1016.2 |
| 20260506233818 | 53 | 302 | 2.6 | 8.7 | 0.00 | 0.00 | 0.00 | 25 | 1016.4 |
| 20260506233324 | 53 | 356 | 2.6 | 8.7 | 0.00 | 0.00 | 0.00 | 24 | 1016.4 |
| 20260506232832 | 53 | 229 | 0.9 | 8.7 | 0.00 | 0.00 | 0.00 | 25 | 1016.4 |
| 20260506232318 | 52 | 343 | 4.3 | 12.2 | 0.00 | 0.00 | 0.00 | 25 | 1016.5 |
| 20260506231826 | 52 | 313 | 3.5 | 12.2 | 0.00 | 0.00 | 0.00 | 25 | 1016.5 |
| 20260506231334 | 52 | 313 | 5.2 | 8.7 | 0.00 | 0.00 | 0.00 | 26 | 1016.5 |
| 20260506230819 | 52 | 258 | 3.5 | 8.7 | 0.00 | 0.00 | 0.00 | 26 | 1016.8 |
| 20260506230327 | 51 | 309 | 3.5 | 10.4 | 0.00 | 0.00 | 0.00 | 26 | 1016.8 |
| 20260506225819 | 51 | 326 | 7.0 | 10.4 | 0.00 | 0.00 | 0.00 | 25 | 1016.9 |
| 20260506225324 | 51 | 359 | 4.3 | 11.3 | 0.00 | 0.00 | 0.00 | 26 | 1016.9 |
| 20260506224831 | 51 | 294 | 3.5 | 11.3 | 0.00 | 0.00 | 0.00 | 25 | 1016.9 |
| 20260506224319 | 51 | 282 | 4.3 | 10.4 | 0.00 | 0.00 | 0.00 | 26 | 1017.0 |
| 20260506223826 | 51 | 343 | 7.0 | 10.4 | 0.00 | 0.00 | 0.00 | 26 | 1017.0 |
| 20260506223332 | 51 | 349 | 1.7 | 11.3 | 0.00 | 0.00 | 0.00 | 26 | 1017.0 |
| 20260506222819 | 51 | 326 | 1.7 | 11.3 | 0.00 | 0.00 | 0.00 | 26 | 1016.9 |
| 20260506222326 | 51 | 233 | 3.5 | 9.6 | 0.00 | 0.00 | 0.00 | 25 | 1016.9 |
| 20260506221834 | 52 | 237 | 3.5 | 10.4 | 0.00 | 0.00 | 0.00 | 25 | 1016.9 |
| 20260506221320 | 52 | 305 | 5.2 | 13.0 | 0.00 | 0.00 | 0.00 | 25 | 1017.2 |
| 20260506220832 | 52 | 280 | 1.7 | 13.0 | 0.00 | 0.00 | 0.00 | 26 | 1017.2 |
| 20260506220336 | 52 | 305 | 3.5 | 10.4 | 0.00 | 0.00 | 0.00 | 25 | 1017.2 |
| 20260506215822 | 52 | 357 | 6.1 | 10.4 | 0.00 | 0.00 | 0.00 | 26 | 1017.3 |
| 20260506215330 | 52 | 291 | 3.5 | 10.4 | 0.00 | 0.00 | 0.00 | 25 | 1017.3 |
| 20260506214832 | 52 | 339 | 4.3 | 10.4 | 0.00 | 0.00 | 0.00 | 25 | 1017.3 |
| 20260506214340 | 51 | 267 | 1.7 | 8.7 | 0.00 | 0.00 | 0.00 | 26 | 1017.3 |
| 20260506213819 | 50 | 257 | 3.5 | 10.4 | 0.00 | 0.00 | 0.00 | 27 | 1017.6 |
| 20260506213325 | 51 | 295 | 7.0 | 11.3 | 0.00 | 0.00 | 0.00 | 26 | 1017.6 |
| 20260506212832 | 51 | 305 | 4.3 | 11.3 | 0.00 | 0.00 | 0.00 | 27 | 1017.6 |
| 20260506212320 | 50 | 295 | 5.2 | 9.6 | 0.00 | 0.00 | 0.00 | 27 | 1017.9 |
| 20260506211827 | 50 | 289 | 5.2 | 12.2 | 0.00 | 0.00 | 0.00 | 26 | 1017.9 |
| 20260506211318 | 50 | 349 | 6.1 | 12.2 | 0.00 | 0.00 | 0.00 | 27 | 1018.0 |
| 20260506210826 | 50 | 274 | 2.6 | 8.7 | 0.00 | 0.00 | 0.00 | 27 | 1018.0 |
| 20260506210334 | 50 | 278 | 5.2 | 7.0 | 0.00 | 0.00 | 0.00 | 28 | 1018.0 |
| 20260506205819 | 50 | 306 | 3.5 | 7.0 | 0.00 | 0.00 | 0.00 | 28 | 1018.3 |
| 20260506205328 | 50 | 299 | 1.7 | 10.4 | 0.00 | 0.00 | 0.00 | 28 | 1018.3 |
| 20260506204834 | 50 | 332 | 5.2 | 10.4 | 0.00 | 0.00 | 0.00 | 27 | 1018.3 |
| 20260506204319 | 50 | 196 | 0.9 | 10.4 | 0.00 | 0.00 | 0.00 | 28 | 1018.4 |
| 20260506203827 | 50 | 250 | 5.2 | 10.4 | 0.00 | 0.00 | 0.00 | 27 | 1018.4 |
| 20260506203335 | 51 | 354 | 2.6 | 7.8 | 0.00 | 0.00 | 0.00 | 29 | 1018.4 |
| 20260506202827 | 50 | 308 | 1.7 | 12.2 | 0.00 | 0.00 | 0.00 | 29 | 1018.4 |
| 20260506202334 | 49 | 336 | 7.8 | 13.9 | 0.00 | 0.00 | 0.00 | 28 | 1018.7 |
| 20260506201821 | 49 | 284 | 6.1 | 13.9 | 0.00 | 0.00 | 0.00 | 28 | 1018.7 |
| 20260506201328 | 49 | 285 | 3.5 | 7.0 | 0.00 | 0.00 | 0.00 | 30 | 1018.7 |
| 20260506200836 | 49 | 264 | 1.7 | 10.4 | 0.00 | 0.00 | 0.00 | 30 | 1018.7 |
| 20260506200323 | 49 | 322 | 5.2 | 9.6 | 0.00 | 0.00 | 0.00 | 30 | 1018.7 |
| 20260506195830 | 48 | 320 | 1.7 | 7.0 | 0.00 | 0.00 | 0.00 | 33 | 1018.7 |
| 20260506195335 | 48 | 352 | 1.7 | 10.4 | 0.00 | 0.00 | 0.00 | 31 | 1019.0 |
| 20260506194822 | 48 | 318 | 5.2 | 10.4 | 0.00 | 0.00 | 0.00 | 31 | 1019.0 |
| 20260506194329 | 49 | 323 | 5.2 | 7.8 | 0.00 | 0.00 | 0.00 | 30 | 1019.0 |
| 20260506193819 | 49 | 311 | 5.2 | 7.8 | 0.00 | 0.00 | 0.00 | 31 | 1019.1 |
| 20260506193326 | 48 | 342 | 1.7 | 7.8 | 0.00 | 0.00 | 0.00 | 32 | 1019.1 |
| 20260506192833 | 48 | 322 | 0.9 | 7.0 | 0.00 | 0.00 | 0.00 | 33 | 1019.1 |
| 20260506192319 | 48 | 347 | 2.6 | 8.7 | 0.00 | 0.00 | 0.00 | 32 | 1019.2 |
| 20260506191829 | 48 | 75 | 3.5 | 8.7 | 0.00 | 0.00 | 0.00 | 32 | 1019.2 |
| 20260506191337 | 49 | 52 | 3.5 | 10.4 | 0.00 | 0.00 | 0.00 | 32 | 1019.2 |
| 20260506190825 | 49 | 233 | 5.2 | 10.4 | 0.00 | 0.00 | 0.00 | 33 | 1019.4 |
| 20260506190331 | 48 | 292 | 5.2 | 7.0 | 0.00 | 0.00 | 0.00 | 33 | 1019.4 |
| 20260506185838 | 48 | 27 | 4.3 | 6.1 | 0.00 | 0.00 | 0.00 | 32 | 1019.4 |
| 20260506185329 | 48 | 130 | 1.7 | 9.6 | 0.00 | 0.00 | 0.00 | 33 | 1019.5 |
| 20260506184836 | 47 | 8 | 0.9 | 9.6 | 0.00 | 0.00 | 0.00 | 36 | 1019.5 |
| 20260506184321 | 47 | 319 | 4.3 | 7.0 | 0.00 | 0.00 | 0.00 | 35 | 1020.1 |
| 20260506183828 | 47 | 357 | 3.5 | 7.0 | 0.00 | 0.00 | 0.00 | 35 | 1020.1 |
| 20260506183336 | 46 | 1 | 3.5 | 8.7 | 0.00 | 0.00 | 0.00 | 35 | 1020.1 |
| 20260506182824 | 46 | 308 | 2.6 | 7.8 | 0.00 | 0.00 | 0.00 | 36 | 1020.2 |
| 20260506182331 | 46 | 346 | 4.3 | 9.6 | 0.00 | 0.00 | 0.00 | 35 | 1020.2 |
| 20260506181819 | 47 | 323 | 4.3 | 9.6 | 0.00 | 0.00 | 0.00 | 34 | 1020.2 |
| 20260506181326 | 46 | 113 | 1.7 | 7.0 | 0.00 | 0.00 | 0.00 | 37 | 1020.2 |
| 20260506180833 | 46 | 352 | 5.2 | 7.0 | 0.00 | 0.00 | 0.00 | 35 | 1020.3 |
| 20260506180324 | 46 | 316 | 3.5 | 6.1 | 0.00 | 0.00 | 0.00 | 35 | 1020.3 |
| 20260506175831 | 45 | 340 | 1.7 | 8.7 | 0.00 | 0.00 | 0.00 | 38 | 1020.3 |
| 20260506175319 | 44 | 301 | 3.5 | 9.6 | 0.00 | 0.00 | 0.00 | 38 | 1020.7 |
| 20260506174826 | 44 | 305 | 0.9 | 9.6 | 0.00 | 0.00 | 0.00 | 37 | 1020.7 |
| 20260506174333 | 44 | 330 | 5.2 | 8.7 | 0.00 | 0.00 | 0.00 | 36 | 1020.7 |
| 20260506173820 | 44 | 339 | 2.6 | 11.3 | 0.00 | 0.00 | 0.00 | 37 | 1020.8 |
| 20260506173327 | 44 | 282 | 6.1 | 11.3 | 0.00 | 0.00 | 0.00 | 38 | 1020.8 |
| 20260506172835 | 45 | 333 | 4.3 | 7.0 | 0.00 | 0.00 | 0.00 | 36 | 1020.8 |
| 20260506172321 | 44 | 247 | 4.3 | 7.0 | 0.00 | 0.00 | 0.00 | 38 | 1021.0 |
| 20260506171831 | 44 | 253 | 3.5 | 7.0 | 0.00 | 0.00 | 0.00 | 37 | 1021.0 |
| 20260506171338 | 43 | 316 | 3.5 | 8.7 | 0.00 | 0.00 | 0.00 | 38 | 1021.0 |
| 20260506170822 | 44 | 349 | 5.2 | 11.3 | 0.00 | 0.00 | 0.00 | 36 | 1021.1 |
| 20260506170329 | 44 | 265 | 7.8 | 11.3 | 0.00 | 0.00 | 0.00 | 37 | 1021.1 |
| 20260506165835 | 43 | 257 | 2.6 | 7.0 | 0.00 | 0.00 | 0.00 | 38 | 1021.1 |
| 20260506165322 | 43 | 347 | 2.6 | 7.0 | 0.00 | 0.00 | 0.00 | 38 | 1021.4 |
| 20260506164830 | 42 | 247 | 3.5 | 8.7 | 0.00 | 0.00 | 0.00 | 39 | 1021.4 |
| 20260506164337 | 42 | 326 | 4.3 | 8.7 | 0.00 | 0.00 | 0.00 | 39 | 1021.4 |
| 20260506163823 | 42 | 343 | 4.3 | 8.7 | 0.00 | 0.00 | 0.00 | 38 | 1021.5 |
| 20260506163330 | 43 | 359 | 2.6 | 6.1 | 0.00 | 0.00 | 0.00 | 37 | 1021.5 |
| 20260506162819 | 42 | 336 | 4.3 | 10.4 | 0.00 | 0.00 | 0.00 | 38 | 1021.6 |
| 20260506162327 | 42 | 270 | 3.5 | 10.4 | 0.00 | 0.00 | 0.00 | 39 | 1021.6 |
| 20260506161832 | 42 | 301 | 1.7 | 8.7 | 0.00 | 0.00 | 0.00 | 38 | 1021.6 |
| 20260506161320 | 42 | 315 | 0.9 | 7.0 | 0.00 | 0.00 | 0.00 | 38 | 1021.7 |
| 20260506160825 | 42 | 323 | 1.7 | 6.1 | 0.00 | 0.00 | 0.00 | 38 | 1021.7 |
| 20260506160333 | 42 | 335 | 1.7 | 6.1 | 0.00 | 0.00 | 0.00 | 38 | 1021.7 |
| 20260506155821 | 42 | 305 | 1.7 | 4.3 | 0.00 | 0.00 | 0.00 | 39 | 1021.7 |
| 20260506155328 | 42 | 203 | 1.7 | 5.2 | 0.00 | 0.00 | 0.00 | 41 | 1021.7 |
| 20260506154835 | 42 | 239 | 2.6 | 5.2 | 0.00 | 0.00 | 0.00 | 40 | 1021.7 |
| 20260506154326 | 42 | 240 | 1.7 | 4.3 | 0.00 | 0.00 | 0.00 | 41 | 1021.7 |
| 20260506153830 | 42 | 306 | 1.7 | 5.2 | 0.00 | 0.00 | 0.00 | 42 | 1021.7 |
| 20260506153337 | 41 | 227 | 1.7 | 5.2 | 0.00 | 0.00 | 0.00 | 42 | 1021.7 |
| 20260506152825 | 41 | 312 | 0.9 | 3.5 | 0.00 | 0.00 | 0.00 | 43 | 1021.7 |
| 20260506152332 | 41 | 257 | 0.9 | 5.2 | 0.00 | 0.00 | 0.00 | 43 | 1022.1 |
| 20260506151820 | 40 | 178 | 0.9 | 5.2 | 0.00 | 0.00 | 0.00 | 45 | 1022.1 |
| 20260506151326 | 40 | 215 | 1.7 | 3.5 | 0.00 | 0.00 | 0.00 | 45 | 1022.1 |
| 20260506150833 | 39 | 236 | 0.9 | 3.5 | 0.00 | 0.00 | 0.00 | 45 | 1022.0 |
| 20260506150319 | 39 | 356 | 1.7 | 5.2 | 0.00 | 0.00 | 0.00 | 43 | 1022.0 |
| 20260506145826 | 39 | 332 | 0.9 | 5.2 | 0.00 | 0.00 | 0.00 | 44 | 1022.0 |
| 20260506145336 | 39 | 230 | 1.7 | 7.0 | 0.00 | 0.00 | 0.00 | 45 | 1022.2 |
| 20260506144824 | 39 | 254 | 4.3 | 7.0 | 0.00 | 0.00 | 0.00 | 48 | 1022.2 |
| 20260506144331 | 38 | 195 | 2.6 | 4.3 | 0.00 | 0.00 | 0.00 | 48 | 1022.2 |
| 20260506143838 | 38 | 229 | 1.7 | 4.3 | 0.00 | 0.00 | 0.00 | 48 | 1022.2 |
| 20260506143324 | 37 | 264 | 0.9 | 2.6 | 0.00 | 0.00 | 0.00 | 50 | 1022.2 |
| 20260506142832 | 37 | 309 | 0.9 | 2.6 | 0.00 | 0.00 | 0.00 | 52 | 1022.2 |
| 20260506142319 | 37 | 250 | 0.9 | 2.6 | 0.00 | 0.00 | 0.00 | 52 | 1022.4 |
| 20260506141826 | 36 | 250 | 1.7 | 2.6 | 0.00 | 0.00 | 0.00 | 54 | 1022.4 |
| 20260506141332 | 36 | 243 | 0.0 | 2.6 | 0.00 | 0.00 | 0.00 | 55 | 1022.4 |
| 20260506140824 | 36 | 311 | 0.0 | 0.9 | 0.00 | 0.00 | 0.00 | 57 | 1022.3 |
| 20260506140332 | 35 | 311 | 0.0 | 1.7 | 0.00 | 0.00 | 0.00 | 58 | 1022.3 |
| 20260506135838 | 34 | 312 | 0.0 | 1.7 | 0.00 | 0.00 | 0.00 | 60 | 1022.3 |
| 20260506135326 | 34 | 311 | 0.0 | 1.7 | 0.00 | 0.00 | 0.00 | 61 | 1022.3 |
| 20260506134831 | 33 | 311 | 0.0 | 0.9 | 0.00 | 0.00 | 0.00 | 62 | 1022.3 |
| 20260506134319 | 33 | 311 | 0.0 | 2.6 | 0.00 | 0.00 | 0.00 | 63 | 1022.5 |
| 20260506133826 | 32 | 312 | 0.9 | 2.6 | 0.00 | 0.00 | 0.00 | 64 | 1022.5 |
| 20260506133331 | 32 | 311 | 0.9 | 2.6 | 0.00 | 0.00 | 0.00 | 65 | 1022.5 |
| 20260506132819 | 32 | 311 | 0.9 | 1.7 | 0.00 | 0.00 | 0.00 | 66 | 1022.5 |
| 20260506132325 | 31 | 311 | 0.0 | 2.6 | 0.00 | 0.00 | 0.00 | 66 | 1022.5 |
| 20260506131818 | 31 | 311 | 1.7 | 2.6 | 0.00 | 0.00 | 0.00 | 66 | 1022.5 |
| 20260506131326 | 31 | 311 | 1.7 | 3.5 | 0.00 | 0.00 | 0.00 | 67 | 1022.5 |
| 20260506130834 | 31 | 312 | 1.7 | 2.6 | 0.00 | 0.00 | 0.00 | 67 | 1022.5 |
| 20260506130319 | 31 | 311 | 1.7 | 3.5 | 0.00 | 0.00 | 0.00 | 68 | 1022.5 |
| 20260506125825 | 31 | 311 | 1.7 | 3.5 | 0.00 | 0.00 | 0.00 | 68 | 1022.5 |
| 20260506125333 | 30 | 313 | 1.7 | 3.5 | 0.00 | 0.00 | 0.00 | 68 | 1022.4 |
| 20260506124818 | 30 | 309 | 1.7 | 4.3 | 0.00 | 0.00 | 0.00 | 68 | 1022.4 |
| 20260506124327 | 30 | 337 | 2.6 | 2.6 | 0.00 | 0.00 | 0.00 | 68 | 1022.4 |
| 20260506123835 | 30 | 336 | 0.0 | 0.9 | 0.00 | 0.00 | 0.00 | 68 | 1022.1 |
| 20260506123324 | 30 | 337 | 0.0 | 1.7 | 0.00 | 0.00 | 0.00 | 68 | 1022.1 |
| 20260506122831 | 30 | 337 | 0.9 | 1.7 | 0.00 | 0.00 | 0.00 | 69 | 1022.1 |
| 20260506122317 | 30 | 337 | 1.7 | 2.6 | 0.00 | 0.00 | 0.00 | 69 | 1022.0 |
| 20260506121825 | 30 | 337 | 1.7 | 2.6 | 0.00 | 0.00 | 0.00 | 69 | 1022.0 |
| 20260506121333 | 30 | 337 | 1.7 | 2.6 | 0.00 | 0.00 | 0.00 | 68 | 1022.0 |
| 20260506120820 | 30 | 337 | 2.6 | 2.6 | 0.00 | 0.00 | 0.00 | 68 | 1021.7 |
| 20260506120329 | 30 | 337 | 2.6 | 2.6 | 0.00 | 0.00 | 0.00 | 67 | 1021.7 |
| 20260506115835 | 30 | 337 | 1.7 | 2.6 | 0.00 | 0.00 | 0.00 | 68 | 1021.7 |
| 20260506115323 | 30 | 337 | 0.9 | 2.6 | 0.00 | 0.00 | 0.00 | 67 | 1021.5 |
| 20260506114828 | 30 | 337 | 0.9 | 1.7 | 0.00 | 0.00 | 0.00 | 67 | 1021.5 |